Temp
-4 -3 -3 -3 -3 -3 -3 -3 -3 -3 -3 -3 -3 -3 -2 -2 -3 -3 -2 -2 -2 -3 -2 -2 -1 -1 0 -0 -0 -1 -1 0 1 2 3 3 3 4 4 4 5 5 6
-4 -4 -4 -4 -4 -4 -4 -3 -4 -4 -4 -3 -3 -3 -3 -3 -3 -3 -3 -2 -2 -2 -3 -3 -3 -2 -0 1 1 -1 -1 -0 0 2 2 3 3 3 3 3 4 5 5
-4 -4 -4 -5 -5 -5 -4 -4 -4 -4 -4 -4 -4 -4 -4 -4 -4 -4 -4 -3 -3 -2 -3 -3 -3 -3 -3 -1 -2 -2 -1 -1 -0 -0 1 2 3 4 3 3 4 4 5
-4 -5 -5 -5 -5 -5 -5 -5 -5 -5 -5 -5 -5 -5 -5 -5 -5 -4 -4 -4 -4 -3 -3 -3 -3 -3 -3 -4 -2 -2 -2 -2 -1 -0 -0 2 3 3 3 3 4 4 5
-5 -5 -5 -5 -6 -6 -6 -6 -6 -6 -6 -6 -6 -6 -6 -6 -6 -5 -5 -5 -4 -4 -3 -4 -4 -4 -4 -4 -3 -2 -2 -2 -1 -1 -0 0 2 3 3 4 3 4 4
-5 -5 -6 -6 -6 -6 -7 -7 -7 -7 -7 -7 -7 -7 -6 -6 -6 -6 -6 -5 -5 -5 -4 -4 -4 -4 -4 -5 -4 -4 -2 -2 -1 -1 -1 -0 1 2 3 3 3 4 4
-6 -6 -6 -7 -7 -7 -7 -7 -7 -8 -8 -8 -8 -8 -7 -7 -7 -7 -6 -6 -6 -6 -5 -4 -4 -5 -5 -5 -5 -4 -3 -2 -1 -1 -1 -0 0 1 1 2 3 3 3
-7 -7 -7 -8 -8 -8 -8 -8 -9 -9 -9 -9 -9 -9 -8 -8 -8 -7 -7 -7 -7 -6 -6 -5 -5 -5 -6 -6 -5 -4 -5 -3 -2 -1 -1 -0 0 1 1 1 2 2 2
-8 -8 -8 -8 -9 -9 -9 -9 -10 -10 -10 -10 -10 -10 -9 -9 -9 -9 -8 -7 -7 -7 -7 -6 -6 -5 -6 -6 -6 -6 -4 -4 -2 -2 -0 -1 -1 0 0 1 2 1 2
-9 -9 -9 -9 -9 -10 -10 -11 -11 -11 -11 -11 -11 -11 -10 -10 -11 -10 -10 -9 -8 -8 -8 -7 -6 -7 -7 -7 -7 -6 -5 -6 -4 -2 -1 -0 -1 -0 0 1 2 1 2
-10 -10 -11 -11 -11 -11 -11 -11 -12 -12 -12 -12 -12 -12 -12 -12 -11 -11 -11 -10 -10 -9 -8 -8 -8 -8 -8 -8 -8 -7 -6 -4 -5 -3 -2 -1 -1 -1 0 1 1 1 2
-11 -11 -12 -12 -12 -12 -12 -13 -13 -14 -14 -14 -14 -14 -14 -13 -13 -12 -12 -12 -11 -10 -9 -9 -8 -9 -9 -9 -8 -7 -6 -6 -4 -5 -3 -2 -1 -1 -0 0 1 1 1
-11 -11 -12 -12 -13 -13 -14 -14 -14 -15 -15 -15 -15 -15 -14 -14 -14 -14 -14 -13 -13 -12 -11 -10 -9 -9 -9 -9 -9 -9 -7 -6 -4 -6 -5 -3 -2 -1 -1 -1 -0 0 0
-12 -13 -13 -14 -14 -15 -15 -15 -15 -16 -16 -16 -16 -15 -15 -15 -14 -14 -14 -14 -14 -14 -12 -11 -10 -10 -10 -9 -9 -9 -8 -7 -7 -5 -6 -5 -3 -2 -1 -1 -0 -0 1
-13 -14 -14 -15 -16 -16 -16 -17 -17 -17 -17 -17 -16 -16 -16 -16 -16 -15 -15 -15 -15 -15 -14 -12 -11 -11 -10 -10 -10 -10 -9 -8 -7 -5 -6 -6 -5 -2 -2 -1 -1 -1 -0
-15 -16 -16 -17 -17 -17 -17 -18 -18 -18 -18 -17 -17 -17 -17 -17 -16 -16 -16 -16 -16 -16 -15 -14 -13 -12 -11 -11 -11 -11 -10 -9 -8 -7 -5 -6 -5 -3 -1 -1 -1 -1 -0
-17 -17 -18 -18 -18 -18 -18 -18 -18 -19 -19 -18 -18 -19 -18 -18 -18 -18 -17 -17 -17 -17 -16 -15 -14 -14 -13 -13 -12 -12 -11 -10 -9 -7 -6 -6 -6 -3 -3 -2 -2 -1 -1
-18 -18 -18 -19 -19 -19 -19 -19 -19 -19 -19 -19 -20 -20 -19 -19 -19 -19 -19 -18 -18 -18 -17 -16 -16 -15 -15 -14 -14 -13 -12 -10 -9 -8 -8 -6 -6 -4 -3 -3 -2 -1 -1
-18 -19 -19 -19 -19 -19 -20 -20 -20 -20 -20 -20 -20 -20 -21 -21 -20 -20 -20 -20 -19 -19 -18 -17 -17 -16 -16 -15 -15 -14 -13 -11 -10 -9 -8 -6 -7 -5 -4 -3 -3 -2 -1
-19 -19 -20 -20 -20 -20 -21 -22 -22 -22 -22 -22 -21 -22 -22 -23 -22 -21 -21 -21 -21 -20 -19 -18 -18 -17 -17 -16 -16 -15 -13 -12 -10 -10 -9 -7 -7 -6 -5 -4 -3 -2 -2
-20 -21 -21 -21 -22 -22 -23 -23 -23 -23 -23 -23 -23 -24 -24 -24 -23 -22 -22 -22 -22 -21 -20 -19 -19 -18 -18 -17 -16 -15 -14 -12 -11 -10 -10 -8 -7 -7 -5 -5 -4 -2 -2
-21 -22 -22 -23 -24 -24 -25 -25 -25 -25 -25 -25 -25 -25 -25 -25 -25 -25 -24 -23 -23 -22 -21 -21 -20 -19 -18 -18 -17 -15 -14 -13 -12 -11 -11 -9 -7 -7 -7 -5 -4 -3 -3
-23 -24 -24 -25 -26 -26 -26 -26 -27 -27 -27 -27 -26 -26 -26 -26 -26 -25 -25 -24 -24 -23 -22 -21 -21 -20 -19 -18 -17 -16 -14 -13 -12 -11 -10 -9 -8 -8 -7 -6 -4 -4 -3
-24 -25 -26 -26 -26 -27 -27 -27 -28 -28 -28 -27 -27 -27 -26 -26 -26 -26 -25 -25 -24 -23 -23 -22 -21 -20 -19 -18 -17 -16 -15 -13 -12 -11 -11 -10 -9 -8 -8 -7 -5 -4 -3
-26 -26 -26 -27 -28 -28 -28 -28 -28 -28 -28 -27 -27 -27 -27 -27 -27 -26 -26 -25 -24 -24 -23 -22 -21 -20 -19 -18 -17 -16 -15 -13 -12 -11 -11 -10 -9 -8 -8 -8 -6 -4 -3
-27 -27 -28 -28 -28 -28 -28 -28 -28 -28 -28 -27 -27 -27 -27 -26 -26 -26 -25 -25 -24 -23 -23 -22 -21 -20 -19 -18 -17 -16 -15 -14 -13 -12 -11 -10 -9 -8 -8 -8 -6 -4 -3
Height
3072 3071 3070 3068 3067 3066 3065 3063 3062 3060 3059 3057 3056 3055 3054 3053 3052 3052 3052 3054 3053 3053 3056 3055 3059 3066 3074 3077 3075 3078 3085 3088 3091 3101 3106 3113 3118 3122 3125 3128 3130 3134 3137
3064 3063 3062 3061 3060 3059 3058 3057 3055 3054 3051 3050 3048 3047 3047 3046 3045 3044 3044 3044 3045 3047 3046 3048 3048 3051 3057 3060 3067 3068 3075 3081 3084 3089 3097 3102 3108 3113 3116 3118 3122 3125 3129
3055 3055 3054 3053 3052 3050 3049 3048 3047 3045 3044 3041 3040 3039 3039 3037 3036 3035 3036 3035 3036 3036 3037 3039 3041 3041 3041 3047 3053 3058 3062 3068 3073 3078 3084 3089 3098 3104 3108 3111 3114 3118 3121
3047 3046 3045 3043 3043 3041 3040 3039 3038 3037 3035 3033 3031 3030 3028 3028 3027 3026 3026 3026 3026 3026 3026 3027 3028 3028 3029 3033 3040 3045 3049 3056 3064 3066 3073 3077 3085 3092 3097 3102 3107 3110 3114
3037 3036 3036 3034 3033 3032 3031 3029 3028 3027 3026 3024 3022 3021 3020 3018 3016 3016 3016 3016 3017 3016 3015 3014 3014 3016 3019 3023 3028 3031 3037 3042 3048 3057 3064 3068 3071 3079 3087 3095 3100 3103 3106
3027 3027 3025 3024 3023 3022 3021 3020 3019 3017 3016 3014 3012 3012 3011 3010 3008 3006 3006 3006 3005 3005 3005 3004 3003 3004 3006 3010 3013 3019 3023 3030 3035 3043 3054 3058 3064 3068 3075 3081 3088 3091 3096
3017 3017 3015 3014 3013 3012 3010 3009 3007 3007 3006 3004 3002 3001 3001 3000 2998 2997 2996 2995 2995 2994 2992 2993 2993 2993 2995 2999 3001 3006 3009 3016 3023 3030 3038 3049 3053 3057 3064 3067 3074 3081 3088
3006 3005 3003 3003 3002 3000 3000 2998 2997 2995 2994 2993 2992 2991 2990 2989 2987 2986 2985 2984 2983 2983 2981 2981 2981 2982 2983 2986 2989 2990 2996 3001 3012 3018 3024 3035 3043 3045 3049 3058 3062 3068 3073
2993 2992 2991 2990 2989 2988 2987 2985 2983 2983 2983 2981 2980 2979 2978 2977 2975 2974 2973 2972 2971 2971 2970 2970 2969 2969 2973 2974 2975 2977 2983 2987 2995 3000 3006 3018 3026 3033 3036 3040 3047 3056 3060
2981 2980 2979 2978 2978 2977 2975 2974 2973 2971 2970 2969 2968 2966 2965 2964 2962 2962 2960 2959 2958 2958 2959 2958 2958 2957 2957 2961 2962 2964 2966 2974 2979 2984 2992 3002 3009 3017 3022 3030 3035 3044 3050
2967 2966 2965 2963 2962 2962 2962 2961 2959 2958 2956 2955 2954 2953 2953 2950 2949 2948 2947 2944 2943 2944 2945 2946 2946 2944 2943 2946 2949 2952 2954 2962 2966 2970 2978 2985 2992 3000 3008 3019 3025 3029 3038
2952 2952 2950 2950 2949 2948 2948 2947 2946 2946 2944 2943 2942 2941 2939 2936 2935 2934 2933 2931 2930 2929 2931 2932 2932 2931 2931 2933 2935 2940 2943 2948 2951 2958 2962 2968 2976 2984 2994 3008 3015 3020 3027
2938 2937 2936 2936 2935 2933 2932 2932 2931 2930 2929 2928 2926 2925 2925 2923 2921 2920 2920 2918 2917 2915 2917 2916 2917 2917 2916 2918 2921 2926 2930 2933 2937 2945 2949 2954 2961 2972 2983 2992 3000 3006 3014
2922 2921 2920 2920 2919 2918 2918 2918 2917 2917 2916 2913 2910 2908 2907 2907 2907 2906 2906 2905 2904 2903 2903 2902 2902 2902 2902 2904 2907 2912 2916 2919 2923 2933 2937 2943 2948 2956 2966 2978 2986 2991 3000
2906 2905 2905 2905 2905 2904 2903 2903 2901 2901 2899 2897 2896 2894 2892 2892 2892 2889 2889 2889 2888 2887 2888 2888 2887 2887 2887 2889 2892 2897 2902 2905 2912 2918 2925 2930 2934 2943 2953 2961 2971 2976 2984
2891 2891 2890 2891 2890 2889 2888 2887 2885 2884 2884 2881 2880 2878 2877 2876 2875 2874 2873 2873 2873 2872 2871 2873 2872 2872 2872 2874 2877 2882 2886 2891 2898 2903 2908 2916 2921 2929 2938 2948 2957 2964 2972
2878 2878 2878 2877 2876 2874 2872 2870 2869 2870 2866 2865 2864 2863 2862 2860 2857 2855 2854 2854 2855 2857 2855 2857 2857 2857 2858 2859 2862 2866 2871 2877 2883 2888 2893 2902 2909 2915 2923 2932 2943 2952 2959
2866 2865 2864 2864 2862 2858 2855 2853 2851 2849 2849 2851 2850 2845 2843 2843 2842 2839 2837 2836 2837 2839 2841 2841 2842 2842 2843 2844 2848 2851 2855 2861 2867 2873 2879 2888 2896 2902 2909 2916 2927 2939 2947
2852 2851 2849 2847 2844 2841 2839 2836 2834 2831 2829 2828 2827 2831 2830 2826 2823 2822 2821 2819 2820 2822 2825 2825 2826 2827 2828 2830 2833 2836 2840 2846 2853 2859 2865 2871 2883 2889 2896 2905 2915 2925 2935
2840 2837 2834 2831 2828 2825 2821 2817 2815 2813 2811 2809 2808 2807 2808 2808 2806 2805 2805 2804 2804 2804 2807 2808 2809 2811 2813 2815 2819 2822 2827 2832 2839 2846 2852 2861 2869 2876 2885 2893 2900 2909 2921
2825 2823 2819 2816 2812 2807 2805 2802 2800 2798 2795 2792 2791 2791 2790 2788 2786 2786 2786 2788 2787 2788 2789 2791 2792 2795 2798 2801 2804 2808 2812 2818 2825 2832 2837 2844 2854 2863 2872 2880 2888 2897 2910
2812 2809 2805 2801 2797 2794 2791 2788 2786 2782 2780 2777 2775 2775 2774 2772 2768 2768 2769 2769 2771 2772 2773 2775 2776 2780 2783 2786 2791 2794 2798 2804 2812 2820 2825 2832 2841 2849 2858 2866 2874 2884 2896
2799 2795 2791 2788 2785 2782 2779 2776 2773 2770 2766 2763 2760 2758 2757 2755 2753 2753 2752 2753 2755 2755 2758 2759 2761 2765 2769 2772 2776 2780 2783 2790 2798 2806 2813 2818 2828 2836 2845 2853 2862 2873 2883
2787 2783 2779 2776 2773 2770 2766 2763 2760 2757 2754 2750 2747 2744 2742 2739 2738 2738 2738 2738 2739 2740 2742 2744 2747 2750 2754 2758 2762 2765 2769 2776 2783 2791 2798 2804 2814 2821 2834 2842 2850 2861 2872
2776 2772 2768 2765 2761 2758 2754 2751 2747 2744 2740 2737 2734 2731 2729 2726 2724 2724 2724 2724 2724 2726 2728 2731 2733 2737 2740 2744 2748 2752 2757 2763 2771 2779 2784 2789 2800 2812 2824 2831 2838 2849 2858
2766 2762 2758 2754 2750 2746 2742 2739 2736 2732 2729 2725 2722 2718 2716 2713 2712 2710 2711 2710 2711 2712 2714 2717 2720 2723 2727 2730 2734 2739 2745 2752 2759 2766 2771 2779 2790 2799 2809 2818 2827 2837 2848
Wind_Speed
25 26 27 29 28 29 30 31 30 30 29 30 30 30 31 31 30 28 30 31 33 38 36 55 61 58 52 47 42 41 45 41 47 43 43 44 38 36 33 31 29 31 32
28 28 30 30 31 31 32 33 33 32 32 32 32 33 34 33 32 31 29 31 35 37 41 40 49 65 67 63 61 58 43 43 45 49 43 50 45 42 37 34 31 30 30
31 32 32 32 33 34 34 35 35 35 34 34 33 34 34 34 34 34 31 30 34 38 42 42 43 45 58 65 51 55 51 52 38 36 46 42 50 45 41 38 34 32 30
34 34 34 35 35 37 37 37 37 37 36 35 33 34 35 34 34 35 34 32 33 37 43 47 44 43 42 54 59 56 59 59 50 36 39 45 48 49 50 44 40 34 31
36 36 36 37 38 39 40 39 40 39 37 35 33 33 34 35 35 36 35 34 33 34 40 47 50 45 47 48 58 54 62 59 64 46 44 45 49 52 53 47 42 36 34
37 37 39 40 40 40 41 41 42 42 38 35 33 35 34 35 37 37 38 36 35 35 35 43 49 49 45 48 57 51 52 60 58 61 58 46 55 48 54 47 51 46 41
39 38 41 42 41 41 42 43 44 43 42 38 36 36 36 37 38 39 40 38 38 38 36 40 46 51 51 47 49 65 53 59 55 58 54 49 47 55 53 44 49 47 46
40 40 41 42 42 43 44 45 45 46 45 42 40 39 38 38 39 40 42 41 39 40 40 41 44 48 52 51 49 55 60 54 64 59 54 53 50 52 58 52 40 43 49
40 41 43 44 44 44 44 45 46 47 47 45 44 42 40 38 39 40 41 42 42 40 41 44 46 48 49 53 53 54 68 52 62 57 58 50 44 49 52 52 51 49 52
38 42 45 45 45 45 46 46 46 48 49 48 45 44 43 40 39 40 41 41 41 42 42 44 47 48 51 51 54 51 56 67 52 59 56 58 50 46 47 51 56 54 50
42 45 45 44 44 45 46 48 49 49 50 49 46 45 43 41 41 41 41 41 40 43 44 44 46 48 50 51 53 53 55 56 61 57 63 57 53 46 46 51 57 60 51
46 48 48 48 47 47 49 49 50 51 51 51 50 47 43 42 41 41 41 41 41 43 45 45 46 48 48 51 53 52 53 54 67 55 61 57 55 54 47 48 53 60 58
52 54 51 49 48 49 50 50 51 51 53 52 50 49 46 44 43 43 42 42 42 43 47 47 48 49 49 49 51 51 53 55 55 68 55 57 58 56 50 42 50 59 63
57 56 53 49 48 49 50 50 52 53 55 54 52 50 47 45 45 47 45 43 43 43 47 49 50 51 51 50 49 49 51 55 52 65 58 53 49 54 53 48 48 57 61
56 53 48 47 47 48 49 52 54 54 53 53 51 50 49 48 48 50 49 47 45 45 47 50 51 53 54 51 49 48 49 53 55 54 66 52 48 57 57 51 44 51 59
45 43 43 44 47 48 51 53 54 54 52 51 50 52 52 52 52 52 51 50 47 46 49 51 52 54 55 53 50 48 48 51 53 54 61 57 53 56 52 47 42 49 59
40 41 43 46 47 50 51 52 53 50 52 53 53 52 52 53 54 53 53 52 50 47 50 51 52 53 53 52 51 48 48 50 50 54 57 67 56 59 52 46 48 41 56
40 42 43 45 48 50 51 52 54 54 54 51 50 53 53 53 53 53 54 54 53 50 49 50 51 51 51 51 50 48 48 48 50 52 54 65 58 63 58 50 50 54 55
41 43 44 46 49 51 52 53 53 54 55 55 55 50 49 52 54 54 54 56 54 52 50 50 49 48 48 48 48 47 47 47 49 50 53 63 62 63 59 54 49 53 57
41 43 45 48 50 51 51 51 52 53 53 53 53 52 50 48 50 52 52 52 53 52 50 49 49 47 45 45 46 45 47 48 48 50 49 59 62 61 59 56 49 53 59
41 42 45 46 47 48 48 48 49 49 50 50 49 48 47 47 50 50 50 49 50 50 49 49 49 46 44 43 44 45 46 47 48 49 47 52 67 59 59 54 50 51 57
40 41 41 43 43 43 44 44 44 45 45 45 45 44 43 44 48 48 47 48 46 46 46 48 48 47 43 41 42 44 46 47 47 47 46 52 72 67 53 53 53 52 57
39 39 40 40 40 40 40 40 40 40 41 42 43 44 43 43 44 44 44 45 45 44 43 46 46 45 43 41 41 43 46 46 46 47 49 51 68 69 52 48 53 52 58
38 39 39 40 39 38 39 39 39 38 39 41 41 41 41 40 40 40 41 41 42 42 42 43 42 43 42 42 42 43 45 46 47 49 51 50 60 67 56 44 50 53 59
38 38 39 38 38 37 37 37 37 37 37 38 38 38 38 39 38 37 37 38 39 39 40 40 40 41 41 41 42 44 44 47 48 51 51 54 60 71 60 43 45 53 60
35 34 34 33 33 33 33 32 32 33 35 35 37 38 38 38 37 36 35 35 36 36 37 38 39 40 40 41 41 42 43 47 48 51 51 55 60 68 60 42 41 54 61
Wind_Direction
294 298 301 302 304 306 309 309 307 305 304 302 298 294 291 291 288 279 271 263 261 259 256 241 222 229 233 238 233 246 262 243 242 230 233 232 231 228 230 234 237 239 242
290 294 297 297 298 301 302 301 301 300 299 298 295 292 288 286 286 283 275 266 259 257 257 255 250 234 228 237 248 258 243 250 242 235 230 228 228 228 230 230 234 237 240
287 290 292 292 294 298 298 298 297 297 297 296 294 289 285 283 284 283 279 271 262 257 256 255 254 252 240 235 236 243 243 260 235 244 239 223 228 229 230 233 229 235 238
282 286 290 288 292 294 294 293 293 294 294 292 290 287 284 284 284 283 281 276 269 260 257 257 258 255 256 233 229 233 242 247 245 245 237 231 226 228 228 231 231 229 235
282 285 284 285 290 290 290 290 291 292 291 289 287 283 281 282 285 284 282 280 274 266 259 256 256 257 252 242 233 230 236 241 251 249 257 238 222 221 227 231 233 230 233
277 280 280 285 286 287 287 288 289 289 289 287 286 283 281 281 284 286 285 282 279 273 265 258 256 254 254 248 245 235 229 236 239 247 259 245 232 223 228 225 228 231 233
274 274 278 282 285 284 284 285 286 286 287 286 284 282 281 281 282 283 284 284 283 278 272 264 256 254 253 251 248 240 228 222 226 237 237 250 241 227 228 222 221 232 233
271 272 276 280 280 281 283 285 285 285 286 287 285 284 282 283 282 282 285 286 283 282 278 270 263 256 253 254 249 247 236 225 228 225 226 230 245 233 223 227 228 230 227
270 272 275 276 277 277 279 280 282 284 286 286 286 285 282 281 282 282 281 281 284 282 278 274 269 263 255 252 250 247 249 229 219 217 219 225 231 239 222 218 222 233 226
272 271 272 274 275 276 277 279 281 282 284 286 286 285 283 281 281 281 281 281 281 281 278 272 272 267 263 253 253 250 247 244 228 220 217 220 222 231 231 224 217 225 228
270 272 273 271 270 271 273 274 275 277 280 283 284 282 279 279 279 278 279 282 282 281 279 274 270 268 263 259 251 248 246 246 237 222 218 211 213 219 231 230 221 220 230
278 275 273 270 269 268 269 270 273 275 278 284 285 282 281 280 277 278 281 282 281 280 279 276 272 268 263 259 254 248 246 247 241 231 219 214 212 215 219 231 226 221 223
281 276 269 264 264 265 266 268 270 273 276 281 282 283 280 276 276 279 281 280 279 278 278 276 274 270 267 260 254 250 245 245 242 237 222 218 211 214 218 227 229 226 228
276 270 260 259 261 264 266 268 272 276 279 281 281 280 279 278 279 280 279 277 278 278 276 275 273 271 268 263 256 250 245 244 243 242 234 221 219 212 217 219 227 223 223
270 260 258 260 262 263 266 270 273 276 277 279 280 279 278 278 279 279 280 279 277 277 274 271 270 269 268 264 259 251 244 241 243 236 240 229 224 212 216 214 232 228 223
260 260 261 263 266 269 270 272 274 276 275 275 276 277 277 277 277 277 277 276 276 276 273 270 266 265 265 265 260 252 244 241 242 238 237 234 223 216 213 210 224 227 224
265 266 268 270 271 272 273 274 275 272 275 276 275 274 274 275 276 277 277 276 276 273 270 267 266 265 264 262 259 253 245 240 240 238 234 232 229 217 212 212 219 227 224
270 271 273 273 273 274 275 275 276 277 275 272 272 274 273 273 273 273 274 274 273 272 270 267 263 262 262 260 256 251 246 239 237 236 236 230 228 222 219 213 214 223 226
275 277 277 277 277 277 277 277 277 277 277 278 276 270 268 269 269 269 269 270 271 269 267 264 263 262 259 257 254 249 245 238 234 233 238 228 228 223 221 214 214 220 223
281 281 281 280 279 279 280 280 280 279 278 277 276 276 273 268 266 266 265 266 266 266 263 261 260 260 259 255 250 247 243 237 232 232 235 229 224 224 223 217 214 217 222
284 283 282 282 281 281 280 280 279 279 279 278 277 276 275 273 269 264 262 259 260 260 260 259 259 258 256 252 246 245 241 235 230 229 231 229 225 226 221 227 214 213 219
286 286 284 281 281 282 281 281 281 280 280 279 278 276 274 270 269 268 265 261 259 257 255 254 255 256 254 250 244 241 238 235 228 226 226 226 228 229 228 225 212 215 215
289 286 285 284 283 283 283 283 284 284 282 280 279 278 276 273 271 267 263 262 261 257 252 251 251 251 250 247 243 240 237 233 226 221 218 221 231 236 229 227 217 215 215
291 289 288 288 289 289 287 286 283 280 281 281 281 279 277 276 273 268 264 261 258 256 251 249 249 248 246 244 242 239 236 230 226 219 218 215 230 233 232 232 224 215 212
291 291 290 291 289 286 286 286 286 286 283 282 280 280 280 278 275 270 265 261 257 253 248 248 246 244 243 242 241 238 234 228 225 220 219 219 226 236 232 235 225 216 212
295 293 290 289 289 289 288 289 288 287 285 283 281 280 279 277 275 271 266 261 255 251 247 245 243 243 242 241 240 237 232 228 225 222 219 218 223 231 229 237 225 214 208